Orbital Elements at Epoch 2457158.5 (2015-May-16.0) TDB
Reference: JPL 28 (heliocentric ecliptic J2000)
Element | Value | Uncertainty (1-sigma) | Units |
e | .3172192347803854 | 3.4038e-07 | |
a | 4.636855050029021 | 1.2172e-07 | au |
q | 3.165955439271249 | 1.6145e-06 | au |
i | 32.62224047521376 | 2.2072e-05 | deg |
node | 129.8827535902145 | 4.4063e-05 | deg |
peri | 219.2999070875776 | 0.00010275 | deg |
M | 164.5506638044065 | 4.1385e-05 | deg |
tp | 2455491.518252686728 (2010-Oct-22.01825269) | 0.00040202 | TDB |
period | 3646.982729562879 9.98 | 0.0001436 3.932e-07 | d yr |
n | .09871173698789328 | 3.8869e-09 | deg/d |
Q | 6.107754660786792 | 1.6033e-07 | au |
|
| | Orbit Determination Parameters
Additional Information
|